ECMWFNIL_sfc_gust_111.txt.gz
Wind_Gust
16 15 15 15 13 12 13 13 12 14 14 14 15 15 16 15 15 16 16 16 16 16 16 16 17 17 17 16 16 17 18 18 18 17 18 19 19 18 21 19 18 18
15 14 14 14 13 11 11 11 13 14 14 14 15 16 15 16 15 16 17 17 17 17 17 17 17 17 17 17 15 17 18 18 19 15 18 19 19 19 20 19 18 18
15 15 15 15 15 13 13 12 13 13 14 14 15 16 16 16 16 16 17 17 17 17 17 17 17 17 16 16 16 17 18 18 19 17 18 19 18 19 19 18 19 18
14 15 15 14 14 16 14 15 14 15 14 16 15 16 17 16 17 17 17 16 17 17 17 17 17 17 17 16 16 17 17 18 18 17 19 18 18 19 19 18 18 18
17 15 14 15 14 15 14 16 16 15 15 17 17 17 18 18 18 18 17 17 17 17 17 18 17 17 16 16 16 18 17 18 16 17 19 19 17 17 17 17 18 18
14 15 16 17 16 17 17 17 17 16 17 17 17 17 17 18 18 18 18 18 17 18 18 18 18 17 16 16 16 16 17 18 17 18 20 19 18 16 15 16 18 19
16 15 16 16 16 16 17 17 16 16 16 16 17 17 18 18 18 19 19 19 19 19 19 18 18 17 16 16 16 17 18 18 17 18 19 18 18 17 15 16 17 18
17 16 18 18 18 18 17 18 17 16 17 17 17 17 18 19 19 18 18 19 19 19 19 19 19 18 16 16 18 18 17 16 17 18 19 18 17 17 16 15 15 18
19 19 20 20 20 18 18 18 17 16 18 18 18 17 16 18 19 19 19 19 19 19 19 19 19 18 16 16 18 19 19 17 17 17 18 18 17 17 17 16 17 17
19 20 21 20 19 18 18 17 17 17 17 18 18 17 18 16 18 19 19 19 19 19 19 18 19 17 17 17 18 18 19 19 18 17 17 17 17 17 17 17 17 17
19 20 20 19 18 18 18 18 17 17 17 19 18 18 18 18 17 18 19 19 19 20 20 20 19 19 18 18 17 16 18 18 17 17 17 17 17 17 13 16 17 17
20 19 20 20 19 19 19 18 18 17 18 17 19 20 18 18 19 17 19 20 20 19 19 20 19 19 20 20 19 17 17 17 16 16 17 17 16 16 16 15 15 16
20 19 20 20 19 19 18 19 19 18 18 19 18 19 19 18 18 18 16 19 19 18 19 19 20 20 20 19 19 18 18 17 16 16 16 15 15 16 15 14 14 14
18 18 19 19 19 19 19 18 18 18 17 17 17 18 19 19 19 18 16 17 18 18 17 17 18 19 19 19 18 18 17 17 16 15 16 15 14 14 14 14 13 13
18 17 17 19 20 20 19 18 18 17 17 17 16 16 15 17 17 18 18 17 17 16 17 16 18 18 17 18 18 17 16 16 16 16 16 15 15 14 13 12 12 11
19 17 19 19 20 20 19 19 18 18 17 17 17 16 16 16 17 17 19 19 18 17 16 15 16 13 11 10 10 17 16 15 14 15 15 14 14 14 13 12 11 11
20 19 20 21 20 20 19 20 19 17 17 17 16 16 16 16 17 18 18 19 19 18 18 16 15 13 12 11 11 12 14 15 15 14 13 14 14 13 13 12 10 10
20 21 21 20 20 20 21 20 19 19 18 17 17 16 16 16 17 18 17 16 16 18 17 16 15 8 13 12 12 12 10 16 15 14 14 13 13 13 12 11 10 9
20 22 21 20 20 20 19 19 20 19 18 18 18 16 15 17 17 16 16 16 16 18 17 16 14 10 12 13 13 13 12 12 16 14 14 13 13 12 11 10 9 8
20 21 21 20 20 20 19 19 19 19 18 17 17 16 17 16 15 16 15 16 16 17 16 14 13 10 11 12 13 13 12 11 14 15 13 14 14 13 11 9 8 8
21 21 20 20 19 19 19 19 18 17 17 16 17 18 19 19 18 17 16 15 15 15 16 14 11 10 11 12 12 13 12 9 13 13 14 13 13 12 10 9 8 6
22 21 19 19 18 18 18 17 16 18 17 15 15 14 14 14 14 14 15 15 14 14 15 15 12 8 10 11 13 12 12 13 13 14 14 14 13 13 11 10 8 7
21 22 22 20 19 18 16 15 16 15 14 16 16 15 15 15 15 14 13 13 13 13 15 14 13 10 9 11 12 13 10 13 13 14 14 15 13 12 12 10 9 7
20 21 22 22 20 19 18 16 16 15 16 17 17 17 16 15 15 13 11 12 13 13 14 15 13 11 11 10 13 14 11 14 14 14 13 13 13 11 10 10 8 6
20 21 21 22 21 18 18 19 17 17 16 16 14 15 15 14 13 13 11 10 10 11 10 13 13 10 9 10 11 11 12 13 14 13 13 12 13 13 10 10 10 7
20 20 21 23 20 18 17 17 17 16 16 16 14 14 16 15 13 13 13 11 10 10 12 11 14 13 13 10 10 10 9 12 14 15 15 13 12 14 13 11 10 10

ECMWFNIL_sfc_gust_114.txt.gz
Wind_Gust
19 19 19 18 17 16 15 15 14 15 15 15 15 16 16 16 16 17 17 17 17 18 18 17 17 17 18 17 17 17 17 16 17 16 16 18 19 18 21 20 18 18
20 19 19 18 16 16 14 13 14 15 15 15 16 17 17 17 17 17 18 18 18 18 18 17 17 17 17 17 16 17 18 17 17 15 18 19 19 19 20 19 18 17
21 20 19 18 18 17 16 14 14 15 16 17 17 17 18 17 18 18 18 18 19 18 18 17 17 17 17 17 16 16 17 17 18 17 18 19 18 19 18 18 19 18
20 20 19 19 18 18 16 17 16 16 16 18 17 18 18 18 18 19 18 17 18 18 18 17 17 17 17 17 16 17 17 17 17 17 18 19 18 19 19 19 19 18
21 20 18 19 19 18 17 17 18 17 17 18 19 19 20 19 19 20 19 18 18 18 18 18 17 17 17 16 16 17 17 18 16 17 19 19 17 17 18 18 18 18
18 20 21 20 19 20 19 19 19 18 18 18 19 19 19 19 20 20 20 19 18 19 19 19 18 17 17 16 16 16 16 17 17 18 20 19 18 17 17 17 17 18
20 19 20 18 18 19 19 19 18 17 18 19 20 19 20 20 20 21 21 20 21 20 20 19 18 17 16 16 16 17 18 18 18 18 19 19 18 18 16 16 17 18
21 19 18 18 18 19 18 19 18 17 18 19 19 20 20 21 22 20 20 21 21 21 20 20 19 18 17 16 18 18 17 16 17 18 18 18 17 17 16 15 15 18
21 20 20 20 20 19 19 20 19 17 19 20 20 20 20 21 21 21 21 21 21 21 21 20 19 18 17 17 18 19 19 17 17 17 17 17 17 17 17 16 17 17
20 20 21 21 21 20 21 19 19 18 20 21 21 20 21 20 21 22 21 21 21 21 20 20 20 18 18 18 19 19 19 19 18 17 17 17 17 17 17 17 17 17
21 21 22 21 20 20 21 20 19 19 20 21 21 21 20 21 22 21 21 22 21 21 21 20 20 19 19 19 18 18 19 19 18 18 17 17 17 17 13 16 17 16
22 21 22 21 21 21 21 21 20 19 20 20 21 21 21 21 21 21 22 22 22 21 21 21 20 19 20 20 20 20 19 18 18 17 17 17 17 16 16 15 15 16
23 23 23 21 21 21 21 21 21 19 21 21 21 21 21 21 21 21 21 21 21 21 21 21 21 20 20 20 21 20 20 19 18 17 17 16 15 16 15 15 14 14
23 22 22 21 20 22 22 21 21 21 21 21 20 21 21 22 22 22 20 20 21 20 20 20 20 21 20 20 20 20 19 19 18 17 17 16 14 15 14 14 13 13
23 22 21 21 21 22 22 21 22 21 21 21 20 21 20 21 21 21 21 20 21 20 20 20 21 21 20 20 20 20 19 19 18 18 17 16 15 14 13 13 13 13
24 21 22 21 21 22 22 21 22 22 21 21 21 21 20 21 21 21 21 21 21 21 20 19 20 19 12 11 10 19 19 18 17 17 16 15 15 14 13 13 13 13
22 21 21 22 21 21 20 21 23 22 22 22 21 21 20 20 21 21 21 22 22 21 21 20 19 17 12 11 9 9 15 17 17 16 15 15 14 13 13 13 12 12
22 22 22 22 22 21 21 21 21 22 22 22 22 21 20 20 20 21 21 21 21 21 21 20 19 13 14 12 11 11 9 17 16 16 15 14 13 13 13 12 12 12
22 23 23 22 22 22 21 21 22 22 22 22 22 20 20 21 22 21 21 21 20 21 21 20 18 16 14 13 13 13 11 11 17 15 15 13 12 12 11 11 11 11
22 23 22 22 22 22 21 22 22 23 21 21 20 20 21 21 21 21 21 21 21 21 20 20 19 17 15 14 13 14 12 11 14 15 14 14 13 12 11 10 10 10
23 23 23 23 22 22 22 22 23 22 22 21 21 21 21 23 22 22 21 21 21 20 20 20 18 19 14 13 13 14 13 11 15 15 14 13 13 12 11 10 9 8
24 23 22 22 22 21 22 23 23 21 21 19 19 20 20 19 19 20 21 22 21 20 19 20 18 19 15 14 13 13 13 18 16 15 15 15 14 13 13 11 11 10
24 24 23 22 21 21 21 22 22 21 20 19 19 18 18 19 19 20 20 20 20 20 19 19 18 15 14 13 12 14 12 20 16 16 15 16 14 13 14 11 10 11
23 24 24 22 21 23 21 20 19 18 18 18 19 18 19 19 18 19 19 19 19 19 20 18 18 16 14 13 12 15 14 19 16 16 15 14 14 13 13 12 9 8
23 23 23 23 23 23 21 21 20 19 17 17 16 16 17 17 17 18 18 18 19 19 10 16 18 16 14 15 15 17 19 21 18 18 16 15 15 15 13 12 13 10
19 20 20 21 22 20 20 22 19 17 17 17 15 17 18 17 18 17 18 17 17 18 18 19 18 20 19 15 15 15 16 19 20 18 16 16 15 15 15 14 13 14

ECMWFNIL_sfc_gust_117.txt.gz
Wind_Gust
26 25 26 22 21 20 22 21 20 19 16 15 14 15 16 16 16 16 16 16 16 16 16 17 17 17 18 17 17 17 17 16 16 15 15 16 16 16 18 17 15 15
25 25 24 21 22 20 19 18 17 19 17 14 14 15 16 17 16 17 17 17 17 17 17 17 17 17 17 17 16 17 17 16 16 15 16 16 16 17 17 15 15 14
23 22 23 22 24 21 20 19 16 15 15 15 16 16 18 17 17 17 17 17 18 18 17 17 17 17 17 17 16 16 17 16 16 15 15 15 15 16 15 15 16 15
24 24 24 22 23 23 20 19 18 16 16 17 16 18 19 17 18 18 17 16 18 18 17 17 17 17 17 17 16 16 16 15 15 14 15 15 15 16 16 15 15 16
26 25 23 23 23 23 19 20 20 18 17 17 18 18 19 19 19 19 18 18 18 18 18 18 17 17 16 16 15 16 15 16 14 14 15 15 15 15 15 15 16 16
24 26 24 24 24 22 20 20 20 18 18 18 19 19 19 19 19 19 18 18 18 19 19 18 18 17 16 16 15 15 15 15 15 15 16 16 16 15 15 15 16 16
25 25 23 23 21 21 20 20 18 17 18 19 20 19 20 19 19 19 19 19 20 20 20 19 18 17 16 15 15 15 15 15 15 16 16 17 16 16 15 15 16 16
26 24 26 23 22 20 20 20 19 17 19 20 19 20 20 20 21 19 19 19 20 20 19 19 18 18 16 15 16 16 15 14 15 16 16 16 15 16 15 14 13 15
27 25 24 23 22 20 20 20 19 17 19 20 21 20 19 20 21 20 20 20 20 20 20 19 19 18 15 16 17 17 16 15 15 16 16 16 16 16 16 14 14 13
27 25 24 23 22 21 21 20 19 18 19 21 21 20 21 20 20 21 20 20 20 20 19 19 19 17 17 17 18 17 17 17 17 16 16 16 16 16 15 14 14 13
26 25 24 22 21 21 21 21 20 19 19 21 21 21 20 21 21 21 20 20 20 20 20 19 19 18 18 18 17 16 17 17 17 17 16 16 15 15 11 13 13 13
22 22 23 22 21 21 22 21 20 19 21 20 22 22 21 20 21 21 21 21 20 20 20 20 19 18 19 19 18 17 17 16 17 17 17 17 16 15 14 13 12 12
22 23 23 22 22 22 21 21 21 19 21 22 21 21 21 21 21 20 19 20 20 19 20 20 19 19 19 19 19 18 18 18 17 17 17 16 15 15 14 13 12 12
23 22 23 23 22 22 22 21 21 21 21 21 21 21 21 21 21 21 19 19 19 19 19 19 19 19 19 19 19 18 18 17 17 17 17 16 15 14 13 12 12 11
24 22 24 23 23 23 22 21 21 21 21 21 20 21 20 21 21 21 20 20 20 19 20 19 19 18 19 19 19 19 18 17 17 17 17 16 15 14 13 13 12 12
28 24 25 23 24 23 23 21 22 22 21 21 21 21 20 21 21 20 20 20 21 20 19 18 18 17 12 9 8 18 17 17 16 17 16 15 15 14 13 12 13 13
28 27 25 24 23 23 22 23 22 23 22 22 22 21 21 21 21 21 20 20 21 20 20 18 18 16 15 11 8 5 14 16 16 16 15 15 14 13 13 13 12 15
27 26 25 25 24 24 23 23 21 22 22 22 22 21 21 20 20 21 20 20 20 20 19 18 18 15 14 10 7 6 8 15 15 15 14 14 13 13 13 13 12 11
25 26 26 25 24 24 22 22 22 22 22 22 22 21 20 21 21 21 20 20 20 21 20 19 18 18 15 11 7 6 6 10 16 14 15 13 13 14 13 14 13 12
25 26 26 25 24 23 23 23 24 23 21 21 20 20 20 20 20 20 20 20 21 20 20 19 20 18 17 12 10 8 7 10 12 14 12 13 13 12 12 12 11 13
26 26 26 25 25 24 23 23 23 22 22 21 21 21 21 22 21 21 21 20 20 20 19 19 20 20 17 14 11 10 9 9 11 14 13 13 14 13 12 11 10 9
26 25 25 25 25 24 24 24 23 22 22 20 20 20 20 19 18 19 19 19 19 19 17 19 21 22 18 16 13 12 9 16 15 14 15 15 15 14 15 13 12 12
26 26 25 25 25 24 24 23 23 23 22 20 22 22 21 19 19 18 18 19 19 19 18 19 21 19 19 16 14 13 10 19 16 16 15 17 15 15 15 13 12 12
25 26 25 24 24 25 24 22 21 20 21 20 22 21 22 20 18 19 19 19 19 19 19 18 20 18 19 17 16 17 15 22 19 18 17 16 17 14 13 13 11 10
25 25 24 24 24 24 23 23 21 21 19 19 19 18 18 17 17 19 19 18 19 19 11 16 21 18 18 18 16 18 19 22 19 18 17 16 15 15 14 13 14 10
23 24 24 24 24 22 21 22 20 20 19 19 17 18 20 17 18 18 19 18 18 19 19 19 20 21 20 17 17 15 17 20 17 16 16 16 15 15 15 14 14 14

ECMWFNIL_sfc_gust_123.txt.gz
Wind_Gust
18 17 17 17 16 15 15 17 14 15 14 15 14 13 12 12 11 10 11 10 9 9 8 8 8 9 10 10 10 11 11 11 11 10 11 12 11 11 13 12 11 11
19 18 16 15 13 13 13 16 16 16 15 15 13 12 13 12 12 13 12 10 9 9 8 10 10 10 11 11 10 12 12 12 12 10 12 11 9 11 12 12 10 10
19 18 17 16 17 15 16 15 14 14 15 14 13 15 14 13 14 12 12 11 10 9 9 9 10 11 12 11 10 11 11 10 11 9 11 11 10 12 10 11 11 9
20 19 17 16 16 17 16 15 12 14 14 15 15 15 16 14 15 13 11 12 11 9 8 9 11 10 10 10 10 11 10 11 10 10 11 10 10 11 11 11 11 11
19 18 17 18 17 16 15 14 14 16 16 16 15 15 16 15 14 13 12 11 10 9 10 11 9 10 10 10 10 12 10 11 9 11 12 12 10 11 10 12 11 10
17 19 18 19 18 17 16 14 15 16 17 15 16 15 15 15 14 14 12 11 10 10 10 10 11 10 11 10 11 10 10 12 11 11 11 11 9 9 9 9 8 7
18 18 17 18 17 15 14 15 14 15 16 14 14 15 16 15 15 14 12 11 11 10 11 11 11 11 10 10 10 10 10 11 10 10 11 10 9 9 9 10 9 8
18 17 17 17 18 16 16 16 14 14 14 14 14 14 16 16 16 13 12 12 11 11 11 11 10 11 10 10 11 11 10 9 11 12 10 9 8 8 8 9 9 10
19 18 18 18 19 17 16 16 14 14 14 15 14 13 13 16 15 14 13 12 11 11 12 11 11 10 9 10 11 11 11 9 11 11 10 10 10 10 11 10 9 8
19 19 20 20 19 17 16 15 16 15 14 15 16 15 16 13 14 14 12 12 12 12 12 11 11 9 10 11 11 10 11 13 12 10 10 9 10 11 10 10 9 8
19 20 20 20 18 17 16 16 15 15 14 15 14 14 14 14 14 13 12 13 14 13 13 12 11 12 12 11 8 8 11 12 11 10 10 10 10 10 11 10 9 8
20 20 21 20 19 17 17 17 17 14 14 13 17 15 13 13 14 13 14 14 14 13 13 13 12 12 12 11 10 10 12 11 11 9 10 10 9 9 10 8 9 8
21 21 21 20 18 18 18 17 16 15 15 16 17 14 14 13 13 13 11 14 14 13 13 13 13 12 12 11 10 11 12 11 10 11 11 10 9 9 8 8 8 9
21 20 20 19 18 18 18 17 16 16 15 15 16 15 15 14 15 14 11 12 12 13 13 13 12 12 11 11 11 12 11 11 12 12 11 9 8 8 9 10 11 11
20 20 19 19 20 20 18 17 16 15 15 16 14 14 14 14 14 14 14 13 13 14 14 12 13 12 12 12 13 12 12 12 13 12 11 11 10 9 10 12 11 10
21 20 20 21 21 19 18 17 17 15 16 17 15 15 14 14 14 13 13 13 14 14 13 12 11 10 12 14 11 13 12 12 12 11 11 11 11 11 11 12 11 9
21 21 22 22 20 19 18 18 18 17 18 16 15 15 14 14 13 14 12 13 14 14 13 11 11 12 15 16 16 14 12 11 12 12 11 11 10 12 13 12 11 9
22 23 22 22 21 20 20 18 18 18 18 16 16 15 13 13 13 13 12 13 13 13 12 10 11 13 17 18 17 15 11 12 11 11 12 11 10 13 13 12 12 11
23 23 22 22 22 20 19 18 20 19 18 17 17 15 12 14 13 14 11 13 13 14 13 12 14 14 16 16 14 14 14 11 11 9 11 11 10 12 14 13 11 11
23 23 23 23 22 21 20 20 20 19 19 16 16 13 14 13 13 13 12 13 13 13 13 15 15 15 17 15 13 13 13 10 9 9 9 9 9 12 14 14 13 13
23 23 23 23 23 22 21 21 21 18 21 17 17 16 15 16 14 15 12 12 13 15 16 15 17 15 17 16 14 12 10 7 10 10 9 9 9 11 14 13 13 14
25 23 23 23 23 22 21 22 21 20 22 16 15 12 11 11 9 12 13 13 15 17 18 17 13 16 18 16 16 12 6 4 6 10 9 9 9 11 12 13 13 13
24 24 24 23 23 23 22 22 21 18 18 16 16 14 13 13 12 11 13 15 17 19 20 18 16 18 22 19 19 20 13 10 9 10 9 10 10 10 11 10 10 9
24 25 24 23 23 23 22 21 19 19 19 19 21 17 15 13 13 13 13 17 20 20 22 21 20 18 19 19 20 18 13 12 9 11 10 10 10 8 9 8 10 12
23 23 23 23 22 21 21 20 20 20 18 17 18 16 15 12 13 14 13 14 19 21 20 23 20 18 18 21 20 17 14 9 10 12 11 9 11 10 8 8 9 10
22 21 20 22 23 20 17 19 20 20 19 18 17 17 15 13 12 14 15 14 15 18 20 21 20 17 19 19 19 16 14 12 7 11 12 11 11 12 10 6 10 10